User: anonymous   Login
Location: Baix
(44.7118°N, 4.7648°E)
Time: 02:31:32
(UTC+00:00)
Language:

Cosmos 1898 Rocket - Orbit

View from above orbital plane
View from above orbital plane
View from above satellite
View from above satellite

Ground track
Ground track

The orbit data is extracted from the following two-line orbital elements,

1 18586U 87098B   20302.79465639  .00000053  00000-0  26923-4 0  9990
2 18586  74.0074 190.8893 0021821 314.5059  45.4310 14.36912909723969
Epoch (UTC): 28 October 2020 19:04:18
Eccentricity: 0.0021821
inclination: 74.0074°
perigee height: 753 km
apogee height: 784 km
right ascension of ascending node: 190.8893°
argument of perigee: 314.5059°
revolutions per day: 14.36912909
mean anomaly at epoch: 45.4310°
orbit number at epoch: 72396

The dashed part of the orbit path shows where the satellite is in the earth's shadow,  

DLR